Вернуться в каталог

USA 483

АктивенВоенныеVLEO
NORAD 62552·PAYLOAD·🇺🇸 United States

Запущен Jan 10, 2025 с Vandenberg Space Force Base

Loading…

Ближайшие Пролёты (ближайшие 24 часа)

TLE

УстаревшееSource: Mike McCants

Эпоха: Aug 24, 2026, 01:47 UTC

1 62552U 25005W   26236.07470279 0.00000000  00000-0  00000-0 0    00
2 62552  70.0135 231.5285 0003000  66.1817 293.8182 14.96713588    01

Отслеживайте USA 483 в реальном времени с AllMySat

Download on the App Store